Location: Warwick
(41.7000°N, 71.4170°W)
Time: 16:46:43
(UTC-04:00)

BREEZE-M DEB (TANK) - Visible Passes

Search period start: 31 March 2015 00:00
Search period end: 10 April 2015 00:00
Orbit: 326 x 15957 km, 49.5° (Epoch: 31 March)

Date Brightness Start Highest point End Pass type
(mag) Time Alt. Az. Time Alt. Az. Time Alt. Az.
31 Mar 6.5 02:41:15 10° WNW 02:53:30 79° NNE 04:32:19 10° SE visible
31 Mar 5.1 21:59:57 33° ENE 21:59:57 33° ENE 22:08:06 10° ENE visible
01 Apr 6.6 02:52:45 10° WNW 03:05:47 83° NNE 04:49:47 10° SE visible
01 Apr 4.4 22:10:00 47° ENE 22:10:00 47° ENE 22:20:54 10° ENE visible
02 Apr 6.7 03:04:13 10° WNW 03:18:04 87° NNE 05:06:20 10° SE visible
02 Apr 3.7 22:19:39 77° NNE 22:19:39 77° NNE 22:33:52 10° ENE visible
03 Apr 6.8 03:15:40 10° WNW 03:30:23 89° SSW 05:22:01 10° SE visible
03 Apr 3.9 22:26:51 10° WSW 22:30:56 71° NNW 22:47:01 10° ENE visible
04 Apr 6.8 03:27:06 10° WNW 03:42:44 85° SW 05:36:52 10° SSE visible
04 Apr 4.2 22:38:11 10° W 22:42:33 65° NNW 23:00:26 10° ENE visible
05 Apr 6.9 03:38:32 10° WNW 03:55:08 81° SW 05:50:57 10° SSE visible
05 Apr 4.5 22:49:31 10° W 22:54:11 61° N 23:14:09 10° ENE visible
06 Apr 6.9 03:49:56 10° WNW 04:07:35 76° SW 06:04:19 10° SSE visible
06 Apr 4.8 23:00:51 10° W 23:05:52 59° N 23:28:16 10° ENE visible
07 Apr 7.0 04:01:22 10° WNW 04:20:06 72° SW 06:17:00 10° SSE visible
07 Apr 5.0 23:12:09 10° W 23:17:33 58° N 23:42:48 10° ENE visible
08 Apr 7.0 04:12:46 10° WNW 04:32:41 68° SW 06:29:01 10° SSE visible
08 Apr 5.2 23:23:27 10° WNW 23:29:14 58° N 23:57:50 10° E visible
09 Apr 7.1 04:24:11 10° WNW 04:45:21 63° SW 06:40:24 10° S visible
